Weather History for Kenosha, WI

Change the Weather History Date:

Thursday, February 28, 2013

  Actual Average Record
Temperature  
Mean Temperature 30 °F -  
Max Temperature 35 °F 37 °F 51 °F (2004)
Min Temperature 26 °F 23 °F -7 °F (2014)
Degree Days  
Heating Degree Days 34    
Moisture  
Dew Point 26 °F    
Average Humidity 79    
Maximum Humidity 89    
Minimum Humidity 69    
Precipitation  
Precipitation 0.00 in - - ()
Sea Level Pressure  
Sea Level Pressure 29.90 in    
Wind  
Wind Speed 12 mph (North)    
Max Wind Speed 17 mph    
Max Gust Speed 22 mph    
Visibility 7 miles    
Events Snow    
Averages and records for this station are not official NWS values.
T = Trace of Precipitation, MM = Missing Value Source: NWS Daily Summary

Daily Weather History Graph

Daily Weather History Graph

Search for Another Location

Airport:

Trip Planner

Search our weather history database for the weather conditions in past years. The results will help you decide how hot, cold, wet, or windy it might be!

Date:

Astronomy

Feb. 28, 2013 Rise Set
Actual Time 6:28 AM CST 5:40 PM CST
Civil Twilight 6:00 AM CST 6:08 PM CST
Nautical Twilight 5:27 AM CST 6:41 PM CST
Astronomical Twilight 4:55 AM CST 7:14 PM CST
Moon 9:13 PM CST (2/28) 7:32 AM CST (2/28)
Length of Visible Light 12h 08m
Length of Day
11h 12m
Waning Gibbous, 90% of the Moon is Illuminated
Feb 28
Waning Gibbous
Mar 4
Last Quarter
Mar 11
New
Mar 19
First Quarter
Mar 27
Full

Hourly Weather History & Observations

Time (CST) Temp. Windchill Dew Point Humidity Pressure Visibility Wind Dir Wind Speed Gust Speed Precip Events Conditions
12:16 AM 33.8 °F 25.3 °F 30.2 °F 87% 29.71 in 1.5 mi NNW 11.5 mph - 0.00 in Snow Light Snow
12:34 AM 33.8 °F 25.8 °F 30.2 °F 87% 29.71 in 2.0 mi NNW 10.4 mph - 0.00 in Snow Light Snow
12:53 AM 33.1 °F 24.9 °F 30.0 °F 89% 29.73 in 2.5 mi NNW 10.4 mph - 0.00 in Snow Light Snow
1:42 AM 33.8 °F 24.8 °F 30.2 °F 87% 29.72 in 3.0 mi NNW 12.7 mph - 0.00 in Snow Light Snow
1:51 AM 33.8 °F 25.3 °F 30.2 °F 87% 29.73 in 1.8 mi NNW 11.5 mph - 0.00 in Snow Light Snow
1:52 AM 33.1 °F 24.9 °F 30.0 °F 89% 29.75 in 1.5 mi NNW 10.4 mph - 0.00 in Snow Light Snow
2:03 AM 33.8 °F 25.3 °F 30.2 °F 87% 29.73 in 1.5 mi NNW 11.5 mph - 0.00 in Snow Light Snow
2:17 AM 33.8 °F 26.4 °F 30.2 °F 87% 29.73 in 1.5 mi NNW 9.2 mph - 0.00 in Snow Light Snow
2:44 AM 33.8 °F 25.8 °F 30.2 °F 87% 29.74 in 2.5 mi NNW 10.4 mph - 0.00 in Snow Light Snow
2:53 AM 33.1 °F 24.9 °F 30.0 °F 89% 29.76 in 5.0 mi NNW 10.4 mph - 0.00 in   Overcast
3:10 AM 33.8 °F 25.3 °F 30.2 °F 87% 29.74 in 2.0 mi NNW 11.5 mph - 0.00 in Snow Light Snow
3:23 AM 33.8 °F 25.3 °F 30.2 °F 87% 29.75 in 3.0 mi North 11.5 mph - 0.00 in   Overcast
3:53 AM 33.1 °F 23.4 °F 28.9 °F 85% 29.78 in 10.0 mi North 13.8 mph - 0.00 in   Overcast
4:53 AM 33.1 °F 23.9 °F 28.9 °F 85% 29.81 in 10.0 mi NNW 12.7 mph - N/A   Overcast
6:53 AM 33.1 °F 24.4 °F 28.0 °F 82% 29.86 in 9.0 mi North 11.5 mph - N/A   Overcast
7:27 AM 33.8 °F 25.3 °F 28.4 °F 81% 29.85 in 2.5 mi North 11.5 mph - 0.00 in Snow Light Snow
8:53 AM 33.1 °F 23.9 °F 28.0 °F 82% 29.91 in 9.0 mi North 12.7 mph 19.6 mph 0.00 in   Overcast
9:53 AM 34.0 °F 23.4 °F 27.0 °F 75% 29.92 in 10.0 mi North 17.3 mph 21.9 mph N/A   Overcast
10:53 AM 35.1 °F 26.4 °F 27.0 °F 72% 29.94 in 10.0 mi North 12.7 mph - N/A   Overcast
11:53 AM 35.1 °F 26.9 °F 27.0 °F 72% 29.95 in 10.0 mi North 11.5 mph 17.3 mph N/A   Overcast
12:53 PM 34.0 °F 25.5 °F 25.0 °F 70% 29.96 in 10.0 mi North 11.5 mph - N/A   Overcast
1:53 PM 33.1 °F 23.4 °F 24.1 °F 70% 29.97 in 10.0 mi North 13.8 mph - N/A   Overcast
2:53 PM 33.1 °F 24.4 °F 24.1 °F 70% 29.99 in 10.0 mi North 11.5 mph - N/A   Overcast
3:53 PM 30.9 °F 20.2 °F 23.0 °F 72% 30.02 in 10.0 mi North 15.0 mph - N/A   Overcast
4:53 PM 30.0 °F 19.5 °F 21.9 °F 72% 30.04 in 10.0 mi NNE 13.8 mph 20.7 mph N/A   Overcast
5:53 PM 30.0 °F 21.1 °F 21.0 °F 69% 30.06 in 10.0 mi North 10.4 mph - N/A   Overcast
6:53 PM 28.9 °F 20.4 °F 19.9 °F 69% 30.08 in 10.0 mi North 9.2 mph - N/A   Overcast
7:00 PM 28.4 °F 18.5 °F 19.4 °F 69% 30.06 in 10.0 mi North 11.5 mph - N/A   Overcast
7:53 PM 28.0 °F 16.5 °F 19.0 °F 69% 30.09 in 10.0 mi North 15.0 mph 21.9 mph N/A   Overcast
8:53 PM 28.0 °F 18.1 °F 19.0 °F 69% 30.10 in 10.0 mi North 11.5 mph - N/A   Overcast
9:53 PM 27.0 °F 16.7 °F 19.0 °F 72% 30.09 in 10.0 mi North 11.5 mph 20.7 mph N/A   Overcast
10:36 PM 26.6 °F 16.8 °F 19.4 °F 74% 30.06 in 10.0 mi North 10.4 mph - N/A   Overcast
10:53 PM 27.0 °F 17.3 °F 19.0 °F 72% 30.09 in 10.0 mi North 10.4 mph 19.6 mph N/A   Overcast
11:09 PM 26.6 °F 16.2 °F 19.4 °F 74% 30.06 in 10.0 mi NNW 11.5 mph 19.6 mph N/A   Overcast
11:53 PM 26.1 °F 16.2 °F 19.0 °F 75% 30.08 in 10.0 mi NNW 10.4 mph - N/A   Overcast